sat.trackr.live / text

‹ back to catalog

STARLINK-3814

NORAD 52335 · 2022-045E

PAYLOAD ACTIVE UNKNOWN

§ Identity

Operator
Country
US
Launch date
2022-04-29
Launch site
AFETR
Launch vehicle
Mass (kg)
RCS (m²)

Purposes: comms

External: N2YO · Heavens-Above · Gunter

§ Orbital elements

Epoch: 2026-09-20T00:44:53.474208Z

Period
93.79 min
Inclination
53.1618°
Eccentricity
0.0001245
Mean motion
15.35407441 rev/d
Perigee alt
458.9 km
Apogee alt
460.6 km
Semi-major
6,837.8 km
B*
7.2498e-5
RAAN
53.6834°
Arg perigee
83.8170°
Mean anomaly
276.2975°
Rev number
24,501

§ Raw data

STARLINK-38141 52335U 22045E   26263.03117447  .00002150  00000+0  72498-4 0  99982 52335  53.1618  53.6834 0001245  83.8170 276.2975 15.35407441245016

JSON: /api/v1/satellites/52335 · /tle

For live sub-satellite position, see the globe view (requires WebGL).

§ Visibility from observer

Set your observer location to see the next 7 days of passes ≥ 10°. The values pass through the URL so the page stays shareable.

No JS? Fill the form by hand. The geolocation button needs JavaScript.